Year,Month,Day,Hour,Minute,Value (Times are PST for temperature in C)
2011,11,16,00,00,1.20
2011,11,16,00,01,1.20
2011,11,16,00,02,1.20
2011,11,16,00,03,1.20
2011,11,16,00,04,1.20
2011,11,16,00,05,1.20
2011,11,16,00,06,1.20
2011,11,16,00,07,1.20
2011,11,16,00,08,1.20
2011,11,16,00,09,1.20
2011,11,16,00,10,1.20
2011,11,16,00,11,1.20
2011,11,16,00,12,1.20
2011,11,16,00,13,1.20
2011,11,16,00,14,1.20
2011,11,16,00,15,1.20
2011,11,16,00,16,1.20
2011,11,16,00,17,1.20
2011,11,16,00,18,1.20
2011,11,16,00,19,1.20
2011,11,16,00,20,1.20
2011,11,16,00,21,1.20
2011,11,16,00,22,1.20
2011,11,16,00,23,1.20
2011,11,16,00,24,1.20
2011,11,16,00,25,1.20
2011,11,16,00,26,1.20
2011,11,16,00,27,1.20
2011,11,16,00,28,1.20
2011,11,16,00,29,1.20
2011,11,16,00,30,1.20
2011,11,16,00,31,1.20
2011,11,16,00,32,1.20
2011,11,16,00,33,1.20
2011,11,16,00,34,1.20
2011,11,16,00,35,1.20
2011,11,16,00,36,1.20
2011,11,16,00,37,1.20
2011,11,16,00,38,1.20
2011,11,16,00,39,1.20
2011,11,16,00,40,1.20
2011,11,16,00,41,1.20
2011,11,16,00,42,1.20
2011,11,16,00,43,1.20
2011,11,16,00,44,1.20
2011,11,16,00,45,1.20
2011,11,16,00,46,1.20
2011,11,16,00,47,1.20
2011,11,16,00,48,1.20
2011,11,16,00,49,1.20
2011,11,16,00,50,1.20
2011,11,16,00,51,1.20
2011,11,16,00,52,1.20
2011,11,16,00,53,1.20
2011,11,16,00,54,1.20
2011,11,16,00,55,1.20
2011,11,16,00,56,1.30
2011,11,16,00,57,1.30
2011,11,16,00,58,1.30
2011,11,16,00,59,1.30
2011,11,16,01,00,1.30
2011,11,16,01,01,1.30
2011,11,16,01,02,1.30
2011,11,16,01,03,1.30
2011,11,16,01,04,1.30
2011,11,16,01,05,1.30
2011,11,16,01,06,1.30
2011,11,16,01,07,1.40
2011,11,16,01,08,1.40
2011,11,16,01,09,1.40
2011,11,16,01,10,1.40
2011,11,16,01,11,1.40
2011,11,16,01,12,1.40
2011,11,16,01,13,1.40
2011,11,16,01,14,1.40
2011,11,16,01,15,1.50
2011,11,16,01,16,1.50
2011,11,16,01,17,1.50
2011,11,16,01,18,1.50
2011,11,16,01,19,1.60
2011,11,16,01,20,1.60
2011,11,16,01,21,1.60
2011,11,16,01,22,1.60
2011,11,16,01,23,1.60
2011,11,16,01,24,1.60
2011,11,16,01,25,1.60
2011,11,16,01,26,1.60
2011,11,16,01,27,1.70
2011,11,16,01,28,1.70
2011,11,16,01,29,1.70
2011,11,16,01,30,1.70
2011,11,16,01,31,1.70
2011,11,16,01,32,1.70
2011,11,16,01,33,1.70
2011,11,16,01,34,1.70
2011,11,16,01,35,1.70
2011,11,16,01,36,1.70
2011,11,16,01,37,1.70
2011,11,16,01,38,1.70
2011,11,16,01,39,1.70
2011,11,16,01,40,1.70
2011,11,16,01,41,1.70
2011,11,16,01,42,1.70
2011,11,16,01,43,1.70
2011,11,16,01,44,1.70
2011,11,16,01,45,1.70
2011,11,16,01,46,1.70
2011,11,16,01,47,1.70
2011,11,16,01,48,1.70
2011,11,16,01,49,1.70
2011,11,16,01,50,1.70
2011,11,16,01,51,1.70
2011,11,16,01,52,1.70
2011,11,16,01,53,1.70
2011,11,16,01,54,1.70
2011,11,16,01,55,1.70
2011,11,16,01,56,1.70
2011,11,16,01,57,1.70
2011,11,16,01,58,1.80
2011,11,16,01,59,1.80
2011,11,16,02,00,1.80
2011,11,16,02,01,1.80
2011,11,16,02,02,1.80
2011,11,16,02,03,1.80
2011,11,16,02,04,1.80
2011,11,16,02,05,1.80
2011,11,16,02,06,1.80
2011,11,16,02,07,1.80
2011,11,16,02,08,1.80
2011,11,16,02,09,1.80
2011,11,16,02,10,1.80
2011,11,16,02,11,1.80
2011,11,16,02,12,1.80
2011,11,16,02,13,1.80
2011,11,16,02,14,1.90
2011,11,16,02,15,1.90
2011,11,16,02,16,1.90
2011,11,16,02,17,1.90
2011,11,16,02,18,1.90
2011,11,16,02,19,1.90
2011,11,16,02,20,1.90
2011,11,16,02,21,1.90
2011,11,16,02,22,1.90
2011,11,16,02,23,1.90
2011,11,16,02,24,1.90
2011,11,16,02,25,1.90
2011,11,16,02,26,1.90
2011,11,16,02,27,1.90
2011,11,16,02,28,1.90
2011,11,16,02,29,1.90
2011,11,16,02,30,1.90
2011,11,16,02,31,2.00
2011,11,16,02,32,2.00
2011,11,16,02,33,2.00
2011,11,16,02,34,2.00
2011,11,16,02,35,2.00
2011,11,16,02,36,2.00
2011,11,16,02,37,2.00
2011,11,16,02,38,2.00
2011,11,16,02,39,2.00
2011,11,16,02,40,2.00
2011,11,16,02,41,2.00
2011,11,16,02,42,2.00
2011,11,16,02,43,2.00
2011,11,16,02,44,2.00
2011,11,16,02,45,2.00
2011,11,16,02,46,2.00
2011,11,16,02,47,2.00
2011,11,16,02,48,2.00
2011,11,16,02,49,2.00
2011,11,16,02,50,2.10
2011,11,16,02,51,2.10
2011,11,16,02,52,2.10
2011,11,16,02,53,2.10
2011,11,16,02,54,2.10
2011,11,16,02,55,2.10
2011,11,16,02,56,2.10
2011,11,16,02,57,2.10
2011,11,16,02,58,2.10
2011,11,16,02,59,2.10
2011,11,16,03,00,2.10
2011,11,16,03,01,2.10
2011,11,16,03,02,2.10
2011,11,16,03,03,2.10
2011,11,16,03,04,2.10
2011,11,16,03,05,2.10
2011,11,16,03,06,2.10
2011,11,16,03,07,2.10
2011,11,16,03,08,2.10
2011,11,16,03,09,2.10
2011,11,16,03,10,2.10
2011,11,16,03,11,2.10
2011,11,16,03,12,2.10
2011,11,16,03,13,2.10
2011,11,16,03,14,2.10
2011,11,16,03,15,2.10
2011,11,16,03,16,2.20
2011,11,16,03,17,2.20
2011,11,16,03,18,2.20
2011,11,16,03,19,2.20
2011,11,16,03,20,2.20
2011,11,16,03,21,2.20
2011,11,16,03,22,2.20
2011,11,16,03,23,2.20
2011,11,16,03,24,2.20
2011,11,16,03,25,2.20
2011,11,16,03,26,2.20
2011,11,16,03,27,2.20
2011,11,16,03,28,2.20
2011,11,16,03,29,2.20
2011,11,16,03,30,2.20
2011,11,16,03,31,2.20
2011,11,16,03,32,2.20
2011,11,16,03,33,2.20
2011,11,16,03,34,2.20
2011,11,16,03,35,2.20
2011,11,16,03,36,2.20
2011,11,16,03,37,2.20
2011,11,16,03,38,2.20
2011,11,16,03,39,2.20
2011,11,16,03,40,2.20
2011,11,16,03,41,2.20
2011,11,16,03,42,2.20
2011,11,16,03,43,2.30
2011,11,16,03,44,2.30
2011,11,16,03,45,2.30
2011,11,16,03,46,2.30
2011,11,16,03,47,2.20
2011,11,16,03,48,2.20
2011,11,16,03,49,2.20
2011,11,16,03,50,2.20
2011,11,16,03,51,2.20
2011,11,16,03,52,2.20
2011,11,16,03,53,2.20
2011,11,16,03,54,2.20
2011,11,16,03,55,2.30
2011,11,16,03,56,2.30
2011,11,16,03,57,2.30
2011,11,16,03,58,2.30
2011,11,16,03,59,2.30
2011,11,16,04,00,2.30
2011,11,16,04,01,2.30
2011,11,16,04,02,2.30
2011,11,16,04,03,2.30
2011,11,16,04,04,2.40
2011,11,16,04,05,2.40
2011,11,16,04,06,2.40
2011,11,16,04,07,2.40
2011,11,16,04,08,2.40
2011,11,16,04,09,2.50
2011,11,16,04,10,2.50
2011,11,16,04,11,2.50
2011,11,16,04,12,2.50
2011,11,16,04,13,2.50
2011,11,16,04,14,2.60
2011,11,16,04,15,2.60
2011,11,16,04,16,2.60
2011,11,16,04,17,2.60
2011,11,16,04,18,2.60
2011,11,16,04,19,2.70
2011,11,16,04,20,2.70
2011,11,16,04,21,2.70
2011,11,16,04,22,2.70
2011,11,16,04,23,2.70
2011,11,16,04,24,2.70
2011,11,16,04,25,2.70
2011,11,16,04,26,2.70
2011,11,16,04,27,2.70
2011,11,16,04,28,2.70
2011,11,16,04,29,2.70
2011,11,16,04,30,2.80
2011,11,16,04,31,2.80
2011,11,16,04,32,2.80
2011,11,16,04,33,2.90
2011,11,16,04,34,2.90
2011,11,16,04,35,3.00
2011,11,16,04,36,3.00
2011,11,16,04,37,3.10
2011,11,16,04,38,3.10
2011,11,16,04,39,3.00
2011,11,16,04,40,3.00
2011,11,16,04,41,3.00
2011,11,16,04,42,2.90
2011,11,16,04,43,2.90
2011,11,16,04,44,2.90
2011,11,16,04,45,2.90
2011,11,16,04,46,2.90
2011,11,16,04,47,2.90
2011,11,16,04,48,2.90
2011,11,16,04,49,2.90
2011,11,16,04,50,2.90
2011,11,16,04,51,2.80
2011,11,16,04,52,2.80
2011,11,16,04,53,2.80
2011,11,16,04,54,2.70
2011,11,16,04,55,2.70
2011,11,16,04,56,2.70
2011,11,16,04,57,2.70
2011,11,16,04,58,2.70
2011,11,16,04,59,2.70
2011,11,16,05,00,2.70
2011,11,16,05,01,2.70
2011,11,16,05,02,2.70
2011,11,16,05,03,2.70
2011,11,16,05,04,2.70
2011,11,16,05,05,2.70
2011,11,16,05,06,2.70
2011,11,16,05,07,2.70
2011,11,16,05,08,2.70
2011,11,16,05,09,2.70
2011,11,16,05,10,2.70
2011,11,16,05,11,2.70
2011,11,16,05,12,2.70
2011,11,16,05,13,2.70
2011,11,16,05,14,2.70
2011,11,16,05,15,2.70
2011,11,16,05,16,2.70
2011,11,16,05,17,2.70
2011,11,16,05,18,2.70
2011,11,16,05,19,2.70
2011,11,16,05,20,2.70
2011,11,16,05,21,2.70
2011,11,16,05,22,2.70
2011,11,16,05,23,2.70
2011,11,16,05,24,2.70
2011,11,16,05,25,2.70
2011,11,16,05,26,2.70
2011,11,16,05,27,2.70
2011,11,16,05,28,2.80
2011,11,16,05,29,2.80
2011,11,16,05,30,2.90
2011,11,16,05,31,2.90
2011,11,16,05,32,3.00
2011,11,16,05,33,3.00
2011,11,16,05,34,3.10
2011,11,16,05,35,3.10
2011,11,16,05,36,3.10
2011,11,16,05,37,3.10
2011,11,16,05,38,3.10
2011,11,16,05,39,3.10
2011,11,16,05,40,3.10
2011,11,16,05,41,3.10
2011,11,16,05,42,3.10
2011,11,16,05,43,3.10
2011,11,16,05,44,3.10
2011,11,16,05,45,3.10
2011,11,16,05,46,3.10
2011,11,16,05,47,3.20
2011,11,16,05,48,3.20
2011,11,16,05,49,3.20
2011,11,16,05,50,3.20
2011,11,16,05,51,3.20
2011,11,16,05,52,3.20
2011,11,16,05,53,3.20
2011,11,16,05,54,3.30
2011,11,16,05,55,3.30
2011,11,16,05,56,3.30
2011,11,16,05,57,3.30
2011,11,16,05,58,3.30
2011,11,16,05,59,3.30
2011,11,16,06,00,3.40
2011,11,16,06,01,3.40
2011,11,16,06,02,3.50
2011,11,16,06,03,3.50
2011,11,16,06,04,3.60
2011,11,16,06,05,3.60
2011,11,16,06,06,3.70
2011,11,16,06,07,3.70
2011,11,16,06,08,3.80
2011,11,16,06,09,3.80
2011,11,16,06,10,3.90
2011,11,16,06,11,3.90
2011,11,16,06,12,4.00
2011,11,16,06,13,4.00
2011,11,16,06,14,4.10
2011,11,16,06,15,4.20
2011,11,16,06,16,4.20
2011,11,16,06,17,4.20
2011,11,16,06,18,4.20
2011,11,16,06,19,4.20
2011,11,16,06,20,4.30
2011,11,16,06,21,4.30
2011,11,16,06,22,4.30
2011,11,16,06,23,4.20
2011,11,16,06,24,4.20
2011,11,16,06,25,4.20
2011,11,16,06,26,4.20
2011,11,16,06,27,4.20
2011,11,16,06,28,4.20
2011,11,16,06,29,4.20
2011,11,16,06,30,4.20
2011,11,16,06,31,4.20
2011,11,16,06,32,4.20
2011,11,16,06,33,4.10
2011,11,16,06,34,4.10
2011,11,16,06,35,4.10
2011,11,16,06,36,4.10
2011,11,16,06,37,4.10
2011,11,16,06,38,4.10
2011,11,16,06,39,4.10
2011,11,16,06,40,4.10
2011,11,16,06,41,4.10
2011,11,16,06,42,4.10
2011,11,16,06,43,4.10
2011,11,16,06,44,4.10
2011,11,16,06,45,4.00
2011,11,16,06,46,4.00
2011,11,16,06,47,4.00
2011,11,16,06,48,3.90
2011,11,16,06,49,3.90
2011,11,16,06,50,3.90
2011,11,16,06,51,3.90
2011,11,16,06,52,3.90
2011,11,16,06,53,3.90
2011,11,16,06,54,3.90
2011,11,16,06,55,3.90
2011,11,16,06,56,3.90
2011,11,16,06,57,3.90
2011,11,16,06,58,3.90
2011,11,16,06,59,3.90
2011,11,16,07,00,3.90
2011,11,16,07,01,3.90
2011,11,16,07,02,3.90
2011,11,16,07,03,3.90
2011,11,16,07,04,3.90
2011,11,16,07,05,3.90
2011,11,16,07,06,3.90
2011,11,16,07,07,3.90
2011,11,16,07,08,3.90
2011,11,16,07,09,4.00
2011,11,16,07,10,4.00
2011,11,16,07,11,4.10
2011,11,16,07,12,4.10
2011,11,16,07,13,4.20
2011,11,16,07,14,4.20
2011,11,16,07,15,4.30
2011,11,16,07,16,4.30
2011,11,16,07,17,4.40
2011,11,16,07,18,4.40
2011,11,16,07,19,4.40
2011,11,16,07,20,4.50
2011,11,16,07,21,4.60
2011,11,16,07,22,4.60
2011,11,16,07,23,4.70
2011,11,16,07,24,4.70
2011,11,16,07,25,4.80
2011,11,16,07,26,4.80
2011,11,16,07,27,4.90
2011,11,16,07,28,4.90
2011,11,16,07,29,4.90
2011,11,16,07,30,5.00
2011,11,16,07,31,5.00
2011,11,16,07,32,5.10
2011,11,16,07,33,5.10
2011,11,16,07,34,5.10
2011,11,16,07,35,5.10
2011,11,16,07,36,5.20
2011,11,16,07,37,5.20
2011,11,16,07,38,5.30
2011,11,16,07,39,5.30
2011,11,16,07,40,5.30
2011,11,16,07,41,5.30
2011,11,16,07,42,5.30
2011,11,16,07,43,5.30
2011,11,16,07,44,5.40
2011,11,16,07,45,5.40
2011,11,16,07,46,5.40
2011,11,16,07,47,5.50
2011,11,16,07,48,5.50
2011,11,16,07,49,5.50
2011,11,16,07,50,5.50
2011,11,16,07,51,5.50
2011,11,16,07,52,5.40
2011,11,16,07,53,5.40
2011,11,16,07,54,5.30
2011,11,16,07,55,5.30
2011,11,16,07,56,5.30
2011,11,16,07,57,5.30
2011,11,16,07,58,5.20
2011,11,16,07,59,5.20
2011,11,16,08,00,5.20
2011,11,16,08,01,5.10
2011,11,16,08,02,5.10
2011,11,16,08,03,5.00
2011,11,16,08,04,5.00
2011,11,16,08,05,4.90
2011,11,16,08,06,4.90
2011,11,16,08,07,4.80
2011,11,16,08,08,4.80
2011,11,16,08,09,4.70
2011,11,16,08,10,4.70
2011,11,16,08,11,4.60
2011,11,16,08,12,4.60
2011,11,16,08,13,4.50
2011,11,16,08,14,4.50
2011,11,16,08,15,4.40
2011,11,16,08,16,4.40
2011,11,16,08,17,4.30
2011,11,16,08,18,4.20
2011,11,16,08,19,4.20
2011,11,16,08,20,4.10
2011,11,16,08,21,4.00
2011,11,16,08,22,4.00
2011,11,16,08,23,3.90
2011,11,16,08,24,3.90
2011,11,16,08,25,3.80
2011,11,16,08,26,3.80
2011,11,16,08,27,3.80
2011,11,16,08,28,3.70
2011,11,16,08,29,3.70
2011,11,16,08,30,3.70
2011,11,16,08,31,3.60
2011,11,16,08,32,3.60
2011,11,16,08,33,3.50
2011,11,16,08,34,3.50
2011,11,16,08,35,3.50
2011,11,16,08,36,3.40
2011,11,16,08,37,3.40
2011,11,16,08,38,3.40
2011,11,16,08,39,3.30
2011,11,16,08,40,3.30
2011,11,16,08,41,3.30
2011,11,16,08,42,3.30
2011,11,16,08,43,3.30
2011,11,16,08,44,3.30
2011,11,16,08,45,3.20
2011,11,16,08,46,3.20
2011,11,16,08,47,3.20
2011,11,16,08,48,3.20
2011,11,16,08,49,3.20
2011,11,16,08,50,3.20
2011,11,16,08,51,3.20
2011,11,16,08,52,3.20
2011,11,16,08,53,3.20
2011,11,16,08,54,3.20
2011,11,16,08,55,3.20
2011,11,16,08,56,3.20
2011,11,16,08,57,3.20
2011,11,16,08,58,3.20
2011,11,16,08,59,3.20
2011,11,16,09,00,3.10
2011,11,16,09,01,3.10
2011,11,16,09,02,3.10
2011,11,16,09,03,3.10
2011,11,16,09,04,3.10
2011,11,16,09,05,3.00
2011,11,16,09,06,3.00
2011,11,16,09,07,3.00
2011,11,16,09,08,2.90
2011,11,16,09,09,2.90
2011,11,16,09,10,2.90
2011,11,16,09,11,2.90
2011,11,16,09,12,2.90
2011,11,16,09,13,2.80
2011,11,16,09,14,2.80
2011,11,16,09,15,2.80
2011,11,16,09,16,2.80
2011,11,16,09,17,2.80
2011,11,16,09,18,2.80
2011,11,16,09,19,2.80
2011,11,16,09,20,2.80
2011,11,16,09,21,2.80
2011,11,16,09,22,2.80
2011,11,16,09,23,2.80
2011,11,16,09,24,2.80
2011,11,16,09,25,2.70
2011,11,16,09,26,2.70
2011,11,16,09,27,2.70
2011,11,16,09,28,2.70
2011,11,16,09,29,2.70
2011,11,16,09,30,2.70
2011,11,16,09,31,2.70
2011,11,16,09,32,2.70
2011,11,16,09,33,2.70
2011,11,16,09,34,2.70
2011,11,16,09,35,2.60
2011,11,16,09,36,2.60
2011,11,16,09,37,2.60
2011,11,16,09,38,2.60
2011,11,16,09,39,2.60
2011,11,16,09,40,2.60
2011,11,16,09,41,2.60
2011,11,16,09,42,2.60
2011,11,16,09,43,2.60
2011,11,16,09,44,2.60
2011,11,16,09,45,2.60
2011,11,16,09,46,2.60
2011,11,16,09,47,2.60
2011,11,16,09,48,2.50
2011,11,16,09,49,2.50
2011,11,16,09,50,2.50
2011,11,16,09,51,2.50
2011,11,16,09,52,2.50
2011,11,16,09,53,2.50
2011,11,16,09,54,2.50
2011,11,16,09,55,2.50
2011,11,16,09,56,2.50
2011,11,16,09,57,2.50
2011,11,16,09,58,2.50
2011,11,16,09,59,2.50
2011,11,16,10,00,2.40
2011,11,16,10,01,2.40
2011,11,16,10,02,2.40
2011,11,16,10,03,2.40
2011,11,16,10,04,2.40
2011,11,16,10,05,2.50
2011,11,16,10,06,2.40
2011,11,16,10,07,2.40
2011,11,16,10,08,2.40
2011,11,16,10,09,2.40
2011,11,16,10,10,2.50
2011,11,16,10,11,2.50
2011,11,16,10,12,2.50
2011,11,16,10,13,2.60
2011,11,16,10,14,2.60
2011,11,16,10,15,2.60
2011,11,16,10,16,2.60
2011,11,16,10,17,2.60
2011,11,16,10,18,2.60
2011,11,16,10,19,2.70
2011,11,16,10,20,2.70
2011,11,16,10,21,2.70
2011,11,16,10,22,2.70
2011,11,16,10,23,2.70
2011,11,16,10,24,2.70
2011,11,16,10,25,2.70
2011,11,16,10,26,2.80
2011,11,16,10,27,2.80
2011,11,16,10,28,2.80
2011,11,16,10,29,2.80
2011,11,16,10,30,2.90
2011,11,16,10,31,2.90
2011,11,16,10,32,2.90
2011,11,16,10,33,3.00
2011,11,16,10,34,3.00
2011,11,16,10,35,3.10
2011,11,16,10,36,3.10
2011,11,16,10,37,3.10
2011,11,16,10,38,3.10
2011,11,16,10,39,3.20
2011,11,16,10,40,3.20
2011,11,16,10,41,3.20
2011,11,16,10,42,3.20
2011,11,16,10,43,3.20
2011,11,16,10,44,3.30
2011,11,16,10,45,3.30
2011,11,16,10,46,3.30
2011,11,16,10,47,3.30
2011,11,16,10,48,3.30
2011,11,16,10,49,3.30
2011,11,16,10,50,3.40
2011,11,16,10,51,3.40
2011,11,16,10,52,3.40
2011,11,16,10,53,3.50
2011,11,16,10,54,3.50
2011,11,16,10,55,3.60
2011,11,16,10,56,3.60
2011,11,16,10,57,3.70
2011,11,16,10,58,3.70
2011,11,16,10,59,3.70
2011,11,16,11,00,3.80
2011,11,16,11,01,3.80
2011,11,16,11,02,3.90
2011,11,16,11,03,4.00
2011,11,16,11,04,4.10
2011,11,16,11,05,4.20
2011,11,16,11,06,4.30
2011,11,16,11,07,4.30
2011,11,16,11,08,4.40
2011,11,16,11,09,4.60
2011,11,16,11,10,4.70
2011,11,16,11,11,4.80
2011,11,16,11,12,4.90
2011,11,16,11,13,5.00
2011,11,16,11,14,5.10
2011,11,16,11,15,5.10
2011,11,16,11,16,5.20
2011,11,16,11,17,5.20
2011,11,16,11,18,5.30
2011,11,16,11,19,5.30
2011,11,16,11,20,5.40
2011,11,16,11,21,5.40
2011,11,16,11,22,5.40
2011,11,16,11,23,5.40
2011,11,16,11,24,5.40
2011,11,16,11,25,5.40
2011,11,16,11,26,5.50
2011,11,16,11,27,5.50
2011,11,16,11,28,5.60
2011,11,16,11,29,5.60
2011,11,16,11,30,5.60
2011,11,16,11,31,5.60
2011,11,16,11,32,5.60
2011,11,16,11,33,5.60
2011,11,16,11,34,5.60
2011,11,16,11,35,5.60
2011,11,16,11,36,5.60
2011,11,16,11,37,5.60
2011,11,16,11,38,5.70
2011,11,16,11,39,5.70
2011,11,16,11,40,5.70
2011,11,16,11,41,5.80
2011,11,16,11,42,5.80
2011,11,16,11,43,5.80
2011,11,16,11,44,5.80
2011,11,16,11,45,5.90
2011,11,16,11,46,5.90
2011,11,16,11,47,6.00
2011,11,16,11,48,6.00
2011,11,16,11,49,6.10
2011,11,16,11,50,6.10
2011,11,16,11,51,6.10
2011,11,16,11,52,6.20
2011,11,16,11,53,6.30
2011,11,16,11,54,6.40
2011,11,16,11,55,6.40
2011,11,16,11,56,6.50
2011,11,16,11,57,6.60
2011,11,16,11,58,6.60
2011,11,16,11,59,6.70
2011,11,16,12,00,6.70
2011,11,16,12,01,6.70
2011,11,16,12,02,6.70
2011,11,16,12,03,6.60
2011,11,16,12,04,6.70
2011,11,16,12,05,6.70
2011,11,16,12,06,6.70
2011,11,16,12,07,6.70
2011,11,16,12,08,6.70
2011,11,16,12,09,6.70
2011,11,16,12,10,6.80
2011,11,16,12,11,6.80
2011,11,16,12,12,6.80
2011,11,16,12,13,6.80
2011,11,16,12,14,6.80
2011,11,16,12,15,6.70
2011,11,16,12,16,6.60
2011,11,16,12,17,6.60
2011,11,16,12,18,6.60
2011,11,16,12,19,6.50
2011,11,16,12,20,6.50
2011,11,16,12,21,6.50
2011,11,16,12,22,6.40
2011,11,16,12,23,6.40
2011,11,16,12,24,6.40
2011,11,16,12,25,6.30
2011,11,16,12,26,6.30
2011,11,16,12,27,6.30
2011,11,16,12,28,6.30
2011,11,16,12,29,6.40
2011,11,16,12,30,6.40
2011,11,16,12,31,6.30
2011,11,16,12,32,6.30
2011,11,16,12,33,6.30
2011,11,16,12,34,6.30
2011,11,16,12,35,6.30
2011,11,16,12,36,6.30
2011,11,16,12,37,6.30
2011,11,16,12,38,6.30
2011,11,16,12,39,6.30
2011,11,16,12,40,6.30
2011,11,16,12,41,6.30
2011,11,16,12,42,6.30
2011,11,16,12,43,6.30
2011,11,16,12,44,6.30
2011,11,16,12,45,6.30
2011,11,16,12,46,6.30
2011,11,16,12,47,6.40
2011,11,16,12,48,6.40
2011,11,16,12,49,6.40
2011,11,16,12,50,6.30
2011,11,16,12,51,6.30
2011,11,16,12,52,6.30
2011,11,16,12,53,6.30
2011,11,16,12,54,6.30
2011,11,16,12,55,6.30
2011,11,16,12,56,6.30
2011,11,16,12,57,6.30
2011,11,16,12,58,6.30
2011,11,16,12,59,6.30
2011,11,16,13,00,6.30
2011,11,16,13,01,6.40
2011,11,16,13,02,6.40
2011,11,16,13,03,6.50
2011,11,16,13,04,6.50
2011,11,16,13,05,6.50
2011,11,16,13,06,6.50
2011,11,16,13,07,6.50
2011,11,16,13,08,6.60
2011,11,16,13,09,6.60
2011,11,16,13,10,6.60
2011,11,16,13,11,6.70
2011,11,16,13,12,6.70
2011,11,16,13,13,6.70
2011,11,16,13,14,6.70
2011,11,16,13,15,6.70
2011,11,16,13,16,6.70
2011,11,16,13,17,6.70
2011,11,16,13,18,6.70
2011,11,16,13,19,6.70
2011,11,16,13,20,6.80
2011,11,16,13,21,6.80
2011,11,16,13,22,6.90
2011,11,16,13,23,7.00
2011,11,16,13,24,7.00
2011,11,16,13,25,7.00
2011,11,16,13,26,7.00
2011,11,16,13,27,7.00
2011,11,16,13,28,7.00
2011,11,16,13,29,7.00
2011,11,16,13,30,7.00
2011,11,16,13,31,6.90
2011,11,16,13,32,6.90
2011,11,16,13,33,6.80
2011,11,16,13,34,6.80
2011,11,16,13,35,6.80
2011,11,16,13,36,6.80
2011,11,16,13,37,6.80
2011,11,16,13,38,6.80
2011,11,16,13,39,6.90
2011,11,16,13,40,6.90
2011,11,16,13,41,7.00
2011,11,16,13,42,7.00
2011,11,16,13,43,7.00
2011,11,16,13,44,7.10
2011,11,16,13,45,7.10
2011,11,16,13,46,7.10
2011,11,16,13,47,7.10
2011,11,16,13,48,7.10
2011,11,16,13,49,7.10
2011,11,16,13,50,7.10
2011,11,16,13,51,7.10
2011,11,16,13,52,7.10
2011,11,16,13,53,7.10
2011,11,16,13,54,7.10
2011,11,16,13,55,7.10
2011,11,16,13,56,7.10
2011,11,16,13,57,7.10
2011,11,16,13,58,7.10
2011,11,16,13,59,7.10
2011,11,16,14,00,7.10
2011,11,16,14,01,7.10
2011,11,16,14,02,7.10
2011,11,16,14,03,7.10
2011,11,16,14,04,7.20
2011,11,16,14,05,7.20
2011,11,16,14,06,7.20
2011,11,16,14,07,7.20
2011,11,16,14,08,7.20
2011,11,16,14,09,7.30
2011,11,16,14,10,7.30
2011,11,16,14,11,7.40
2011,11,16,14,12,7.40
2011,11,16,14,13,7.40
2011,11,16,14,14,7.50
2011,11,16,14,15,7.50
2011,11,16,14,16,7.50
2011,11,16,14,17,7.50
2011,11,16,14,18,7.50
2011,11,16,14,19,7.50
2011,11,16,14,20,7.50
2011,11,16,14,21,7.50
2011,11,16,14,22,7.50
2011,11,16,14,23,7.60
2011,11,16,14,24,7.60
2011,11,16,14,25,7.60
2011,11,16,14,26,7.60
2011,11,16,14,27,7.60
2011,11,16,14,28,7.70
2011,11,16,14,29,7.70
2011,11,16,14,30,7.80
2011,11,16,14,31,7.80
2011,11,16,14,32,7.80
2011,11,16,14,33,7.90
2011,11,16,14,34,7.90
2011,11,16,14,35,7.90
2011,11,16,14,36,7.90
2011,11,16,14,37,7.90
2011,11,16,14,38,7.90
2011,11,16,14,39,7.90
2011,11,16,14,40,7.90
2011,11,16,14,41,7.90
2011,11,16,14,42,7.90
2011,11,16,14,43,7.90
2011,11,16,14,44,7.90
2011,11,16,14,45,7.90
2011,11,16,14,46,7.90
2011,11,16,14,47,8.00
2011,11,16,14,48,8.00
2011,11,16,14,49,8.10
2011,11,16,14,50,8.10
2011,11,16,14,51,8.10
2011,11,16,14,52,8.10
2011,11,16,14,53,8.10
2011,11,16,14,54,8.20
2011,11,16,14,55,8.20
2011,11,16,14,56,8.20
2011,11,16,14,57,8.20
2011,11,16,14,58,8.30
2011,11,16,14,59,8.30
2011,11,16,15,00,8.30
2011,11,16,15,01,8.40
2011,11,16,15,02,8.40
2011,11,16,15,03,8.40
2011,11,16,15,04,8.50
2011,11,16,15,05,8.60
2011,11,16,15,06,8.70
2011,11,16,15,07,8.70
2011,11,16,15,08,8.80
2011,11,16,15,09,8.80
2011,11,16,15,10,8.80
2011,11,16,15,11,8.90
2011,11,16,15,12,8.90
2011,11,16,15,13,8.90
2011,11,16,15,14,8.90
2011,11,16,15,15,8.90
2011,11,16,15,16,9.00
2011,11,16,15,17,9.00
2011,11,16,15,18,9.00
2011,11,16,15,19,9.00
2011,11,16,15,20,9.00
2011,11,16,15,21,9.00
2011,11,16,15,22,9.00
2011,11,16,15,23,9.00
2011,11,16,15,24,9.10
2011,11,16,15,25,9.10
2011,11,16,15,26,9.20
2011,11,16,15,27,9.20
2011,11,16,15,28,9.20
2011,11,16,15,29,9.20
2011,11,16,15,30,9.20
2011,11,16,15,31,9.30
2011,11,16,15,32,9.30
2011,11,16,15,33,9.30
2011,11,16,15,34,9.30
2011,11,16,15,35,9.30
2011,11,16,15,36,9.30
2011,11,16,15,37,9.40
2011,11,16,15,38,9.40
2011,11,16,15,39,9.40
2011,11,16,15,40,9.40
2011,11,16,15,41,9.40
2011,11,16,15,42,9.40
2011,11,16,15,43,9.40
2011,11,16,15,44,9.40
2011,11,16,15,45,9.50
2011,11,16,15,46,9.50
2011,11,16,15,47,9.50
2011,11,16,15,48,9.50
2011,11,16,15,49,9.50
2011,11,16,15,50,9.50
2011,11,16,15,51,9.50
2011,11,16,15,52,9.50
2011,11,16,15,53,9.50
2011,11,16,15,54,9.50
2011,11,16,15,55,9.50
2011,11,16,15,56,9.50
2011,11,16,15,57,9.50
2011,11,16,15,58,9.50
2011,11,16,15,59,9.50
2011,11,16,16,00,9.50
2011,11,16,16,01,9.50
2011,11,16,16,02,9.50
2011,11,16,16,03,9.50
2011,11,16,16,04,9.50
2011,11,16,16,05,9.50
2011,11,16,16,06,9.50
2011,11,16,16,07,9.50
2011,11,16,16,08,9.60
2011,11,16,16,09,9.50
2011,11,16,16,10,9.50
2011,11,16,16,11,9.50
2011,11,16,16,12,9.50
2011,11,16,16,13,9.60
2011,11,16,16,14,9.50
2011,11,16,16,15,9.50
2011,11,16,16,16,9.50
2011,11,16,16,17,9.50
2011,11,16,16,18,9.60
2011,11,16,16,19,9.60
2011,11,16,16,20,9.50
2011,11,16,16,21,9.60
2011,11,16,16,22,9.60
2011,11,16,16,23,9.60
2011,11,16,16,24,9.60
2011,11,16,16,25,9.60
2011,11,16,16,26,9.60
2011,11,16,16,27,9.60
2011,11,16,16,28,9.60
2011,11,16,16,29,9.60
2011,11,16,16,30,9.60
2011,11,16,16,31,9.60
2011,11,16,16,32,9.50
2011,11,16,16,33,9.50
2011,11,16,16,34,9.50
2011,11,16,16,35,9.50
2011,11,16,16,36,9.50
2011,11,16,16,37,9.50
2011,11,16,16,38,9.50
2011,11,16,16,39,9.50
2011,11,16,16,40,9.50
2011,11,16,16,41,9.50
2011,11,16,16,42,9.40
2011,11,16,16,43,9.40
2011,11,16,16,44,9.40
2011,11,16,16,45,9.40
2011,11,16,16,46,9.40
2011,11,16,16,47,9.50
2011,11,16,16,48,9.50
2011,11,16,16,49,9.50
2011,11,16,16,50,9.50
2011,11,16,16,51,9.50
2011,11,16,16,52,9.50
2011,11,16,16,53,9.50
2011,11,16,16,54,9.50
2011,11,16,16,55,9.50
2011,11,16,16,56,9.50
2011,11,16,16,57,9.50
2011,11,16,16,58,9.50
2011,11,16,16,59,9.50
2011,11,16,17,00,9.50
2011,11,16,17,01,9.50
2011,11,16,17,02,9.50
2011,11,16,17,03,9.50
2011,11,16,17,04,9.50
2011,11,16,17,05,9.50
2011,11,16,17,06,9.50
2011,11,16,17,07,9.50
2011,11,16,17,08,9.50
2011,11,16,17,09,9.50
2011,11,16,17,10,9.50
2011,11,16,17,11,9.50
2011,11,16,17,12,9.50
2011,11,16,17,13,9.50
2011,11,16,17,14,9.50
2011,11,16,17,15,9.50
2011,11,16,17,16,9.50
2011,11,16,17,17,9.50
2011,11,16,17,18,9.50
2011,11,16,17,19,9.50
2011,11,16,17,20,9.50
2011,11,16,17,21,9.50
2011,11,16,17,22,9.50
2011,11,16,17,23,9.50
2011,11,16,17,24,9.50
2011,11,16,17,25,9.50
2011,11,16,17,26,9.50
2011,11,16,17,27,9.50
2011,11,16,17,28,9.50
2011,11,16,17,29,9.50
2011,11,16,17,30,9.50
2011,11,16,17,31,9.50
2011,11,16,17,32,9.50
2011,11,16,17,33,9.50
2011,11,16,17,34,9.50
2011,11,16,17,35,9.50
2011,11,16,17,36,9.50
2011,11,16,17,37,9.50
2011,11,16,17,38,9.50
2011,11,16,17,39,9.50
2011,11,16,17,40,9.50
2011,11,16,17,41,9.50
2011,11,16,17,42,9.50
2011,11,16,17,43,9.50
2011,11,16,17,44,9.50
2011,11,16,17,45,9.50
2011,11,16,17,46,9.50
2011,11,16,17,47,9.50
2011,11,16,17,48,9.50
2011,11,16,17,49,9.50
2011,11,16,17,50,9.50
2011,11,16,17,51,9.50
2011,11,16,17,52,9.50
2011,11,16,17,53,9.50
2011,11,16,17,54,9.50
2011,11,16,17,55,9.50
2011,11,16,17,56,9.50
2011,11,16,17,57,9.50
2011,11,16,17,58,9.50
2011,11,16,17,59,9.50
2011,11,16,18,00,9.50
2011,11,16,18,01,9.50
2011,11,16,18,02,9.50
2011,11,16,18,03,9.50
2011,11,16,18,04,9.50
2011,11,16,18,05,9.50
2011,11,16,18,06,9.50